Regional Weather Roundup
Issued by NWS

Home | Current Version | Previous Version | Graphics & Text | Print | Product List | Glossary On
Versions: 1 2 3 4 5 6 7 8 9 10 11 12 13 14 15 16 17 18 19 20 21 22 23 24 25 26 27 28
000
ASUS45 KCYS 131510
RWRWY

WYOMING REGIONAL WEATHER ROUNDUP
NATIONAL WEATHER SERVICE CHEYENNE WY
800 AM MST WED DEC 13 2017

NOTE:  "FAIR" INDICATES FEW OR NO CLOUDS BELOW 12,000 FEET
WITH NO SIGNIFICANT WEATHER AND/OR OBSTRUCTIONS TO VISIBILITY.

WYZ001-131600-
YELLOWSTONE NATIONAL PARK

CITY           SKY/WX    TMP DP  RH WIND       PRES   REMARKS
LK YELLOWSTONE   N/A     11   8  88 CALM      30.27F
W YELLOWSTONE  NOT AVBL

$$
WYZ002>013-054>058-071-098>099-131600-
NORTHERN WYOMING

CITY           SKY/WX    TMP DP  RH WIND       PRES   REMARKS
JACKSON        CLOUDY    15  12  88 NE3       30.29S
CODY           CLOUDY    29  12  49 CALM      30.21S
GREYBULL       FAIR      25  17  72 SE8       30.20R WCI  16
WORLAND        FAIR      25  15  66 S9        30.19R WCI  15
SHERIDAN       FAIR      31  17  56 N9        30.17S WCI  23
BUFFALO        FAIR      38  12  34 N5        30.15S WCI  34
GILLETTE       FAIR      29  15  56 W10       30.14S WCI  20
HULETT         FAIR      34  18  51 W3        30.13S
NEWCASTLE      FAIR      34  14  44 NW18G25   30.09R WCI  23

$$
WYZ014>020-022>026-101>103-131600-
CENTRAL WYOMING

CITY           SKY/WX    TMP DP  RH WIND       PRES   REMARKS
BIG PINEY      CLOUDY    31   3  30 NE9       30.23F WCI  23
PINEDALE       PTSUNNY   27   7  43 CALM      30.23F
DUBOIS         FAIR      30   0  27 NW15      30.18F WCI  19
LANDER         CLOUDY    32  16  51 CALM      30.17F
RIVERTON       FAIR      34  12  40 SW3       30.19F
CASPER         FAIR      18  13  80 CALM      30.19R
DOUGLAS        FAIR      30  15  53 NW10      30.18S WCI  21

$$
WYZ021-027>030-104>119-131600-
SOUTHERN WYOMING

CITY           SKY/WX    TMP DP  RH WIND       PRES   REMARKS
EVANSTON       CLOUDY    29   8  41 S7        30.26F WCI  22
FORT BRIDGER   CLOUDY    36   3  24 W13       30.27S WCI  27
ROCK SPRINGS   CLOUDY    32   3  29 SW7       30.23F WCI  26
DIXON          CLOUDY    25  17  71 E7        30.26F WCI  17
RAWLINS        FAIR      25  11  55 N3        30.21S
SARATOGA       FAIR      21  12  68 S8        30.22S WCI  12
LARAMIE        FAIR      22   5  48 W9        30.17S WCI  12
CHEYENNE       FAIR      34   9  35 N12       30.15S WCI  25
TORRINGTON     FAIR      38  13  35 W6        30.13R WCI  33
PINE BLUFFS    FAIR      32   9  37 MISG      30.16S

$$




USA.gov is the U.S. government's official web portal to all federal, state and local government web resources and services.